Portada
METAR-TAF:

METAR-TAF

Aeroports :

Casino, Austràlia

latitud: 28-52-39S, longitud: 153-03-07E, altitud: 21 m

Observació

L'informe es va fer fa 30 minuts, a les 09:00 UTC
Vent 4 kt del Sud
Temperatura 16°C
Humitat 88%
Pressió 1026 hPa

METAR: YCAS 230900Z AUTO 19004KT //// // ////// 16/14 Q1026

Hora: 19:30 (09:30 UTC)


TAF: manca

Observacions i pronòstics meteorològics de més de 4000 aeroports (METAR i TAF).

Les estacions disponibles són els punts grocs i vermells al mapa.

Posi el ratolí al punt desitjat per veure el nom de l'estació.

Feu clic per veure les observacions i els pronòstics meteorològics.

Per canviar el mapa: feu clic els botons verds amb una creu de color negre per apropar; al botó verd amb un guió per allunyar la imatge; o en les fletxes verdes per a mapes adjacents.


METAR-TAF: